Flag for Canada Weather past 2 weeks in Yorkton, Saskatchewan, Canada

Now
-22 °F

Clear.


Feels Like: -40 °F
Forecast: -22 / -12 °F
Wind: 7 mph from Northwest

Location: Yorkton

Current Time: Dec 29, 2014 at 12:53:23 AM

Latest Report: Dec 29, 2014 at 12:00 AM


Visibility: 9 mi

Pressure: 30.78 "Hg

Humidity: 75%

Dew point: -27 °F

Location of YorktonLocation

Historic Weather in Yorkton — Graph

°F

Yorkton temperature yesterday

Maximum temperature yesterday: -11 °F (at 1:00 PM)
Minimum temperature yesterday: -22 °F (at 2:00 AM)
Average temperature yesterday: -18 °F

Past Weeks' High & Low Weather Summary

 TemperatureHumidityPressure
High28 °F (Dec 13, 11:00 PM)100% (Dec 14, 12:00 AM)30.76 "Hg (Dec 14, 12:00 AM)
Low-22 °F (Dec 28, 2:00 AM)70% (Dec 28, 4:00 PM)29.45 "Hg (Dec 24, 2:00 PM)
Average16 °F89%30.08 "Hg
* Reported Dec 13 11:00 PM — Dec 28 11:00 PM, Yorkton, Weather by CustomWeather, © 2014

Note: Actual official high and low records may vary slightly from our data, if they occured in-between our weather recording intervals... More about our weather records

Advertising

Yorkton weather history for previous 24 hours

 ConditionsComfort  
Time TempWeatherWind HumidityBarometerVisibility
11:00 PM
Dec 28
-20 °FClear.8 mph75%30.76 "Hg9 mi
10:00 PM-18 °FClear.10 mph75%30.73 "Hg9 mi
9:00 PM-18 °FClear.10 mph75%30.72 "Hg9 mi
8:00 PM-18 °FClear.10 mph75%30.70 "Hg9 mi
7:00 PM-17 °FClear.12 mph76%30.67 "Hg9 mi
6:00 PM-15 °FClear.9 mph76%30.64 "Hg9 mi
5:00 PM-15 °FClear.7 mph76%30.62 "Hg9 mi
4:00 PM-11 °FSunny.9 mph70%30.58 "Hg9 mi
3:00 PM-11 °FSunny.7 mph76%30.55 "Hg9 mi
2:00 PM-11 °FSunny.5 mph76%30.54 "Hg9 mi
1:00 PM-11 °FSunny.9 mph76%30.52 "Hg9 mi
12:00 PM-13 °FSunny.10 mph76%30.51 "Hg9 mi
11:00 AM-15 °FSunny.8 mph76%30.50 "Hg9 mi
10:00 AM-18 °FSunny.7 mph75%30.48 "Hg9 mi
9:00 AM-20 °FSunny.5 mph75%30.45 "Hg9 mi
8:00 AM-22 °FClear.5 mph75%30.44 "Hg9 mi
7:00 AM-20 °FClear.5 mph75%30.42 "Hg9 mi
6:00 AM-22 °FClear.5 mph75%30.40 "Hg9 mi
5:00 AM-22 °FClear.3 mph75%30.38 "Hg9 mi
4:00 AM-22 °FClear.6 mph75%30.37 "Hg9 mi
3:00 AM-20 °FClear.3 mph75%30.36 "Hg9 mi
2:00 AM-22 °FClear.5 mph75%30.34 "Hg9 mi
1:00 AM-20 °FClear.3 mph75%30.32 "Hg9 mi
12:00 AM-20 °FClear.5 mph75%30.32 "Hg9 mi
Weather by CustomWeather, © 2014

See weather overviewHow to use our weather pages